{"data":{"norad_id":59363,"intl_designator":"2024-060R","name":"STARLINK-31553","alt_names":[],"object_type":"PAYLOAD","status":"ACTIVE","operator":null,"country":"US","launch_date":"2024-03-31","launch_site_code":"AFETR","launch_vehicle":null,"mission":null,"orbit_class":"UNKNOWN","rcs_meters":null,"size_class":null,"mass_kg":null,"dimensions":null,"purposes":["comms"],"wikipedia_slug":null,"has_3d_model":false,"image_url":null,"decayed_at":null,"tle_current":{"epoch":"2026-09-21T14:18:56.313504Z","epoch_age_seconds":67597,"freshness":"FRESH","line1":"1 59363U 24060R   26264.59648511 -.00002041  00000+0 -64688-4 0  9991","line2":"2 59363  43.0013 226.5947 0000859 277.4928  82.5826 15.27571779140103","mean_motion":15.27571779,"eccentricity":8.59e-5,"inclination_deg":43.0013,"raan_deg":226.5947,"arg_perigee_deg":277.4928,"mean_anomaly_deg":82.5826,"bstar":-6.4688e-5,"rev_number":14010,"period_min":94.267256033145,"perigee_km":482.48433478131,"apogee_km":483.66309078177,"semimajor_km":6861.2107127815,"source":"CELESTRAK","updated_at":"2026-09-22T09:00:48.905999Z"}}}